Location: Staunton
(38.1490°N, 79.0720°W)
Time: 00:20:43
(UTC-05:00)

ISS - Pass Details

Date: 23 November 2020
Orbit: 418 x 421 km, 51.6° (Epoch: 26 November)

Event Time Altitude Azimuth Distance (km) Brightness Sun altitude
Rises 17:28:54 0° 242° (WSW) 2,350 2.6 -6.2°
Reaches altitude 10° 17:31:02 10° 248° (WSW) 1,489 0.9 -6.6°
Maximum altitude 17:34:17 48° 324° (NW) 551 -3.0 -7.2°
Drops below altitude 10° 17:37:34 10° 41° (NE) 1,496 -1.5 -7.8°
Enters shadow 17:37:56 - 42° (NE) 1,645 -1.3 -7.9°
